Kezdőlap
METAR-TAF:

METAR-TAF

Repülőterek :

Granite Falls Municipal Airport (Lenzen-Roe Memorial Field)

Granite Falls, Minnesota, Amerikai Egyesült Államok

földrajzi szélesség: 44-45-11N, földrajzi hosszúság: 095-33-21W, magasság: 319 m

Jelenlegi meteorológiai megfigyelések

A jelentés 17 perccel ezelõtt készült, 18:35 UTC
Nyugati szél 22 kt széllökések: 28 kt
Hőmérséklet 10°C
Páratartalom 50%
Légköri nyomás 1020 hPa
Látótávolság: 16.1 km
Szórványos felhőzet 4400 lábon
Borult 5000 lábon

METAR: KGDB 181835Z AUTO 28022G28KT 10SM SCT044 OVC050 10/00 A3011 RMK AO2 T01021001

Idő: 13:52 (18:52 UTC)


TAF: hiányzik

Meteorológiai megfigyelések és előrejelzések több, mint 4000 repülőtéren (METAR és TAF jelentéseket).

A térképen piros és sárga pontok jelzik az elérhető meteorológiai állomásokat.

Mozgassa az egeret a pont fölött, hogy megjelenjen az állomás neve.

Azután kattintson az időjárási megfigyelések és előrejelzések megtekintéséhez.

A térkép megváltoztatása: kattintson a fekete keresztel jelölt zöld gombra ráközelítéshez, a vonallal jelölt zöld gombra távolításhoz, vagy a zöld nyilakra a szomszédos térképek eléréséhez.


METAR-TAF: